Location: Unspecified
(0.0000°N, 0.0000°E)
Time: 07:45:45
(UTC+00:00)

deb r/b Ablestar - Pass Details

Date: 16 October 2024
Orbit: 819 x 956 km, 66.7° (Epoch: 08 November)

Event Time Altitude Azimuth Distance (km) Brightness Sun altitude
Exits shadow 02:32:08 13° 84° (E) 2,434 ? -47.6°
Drops below altitude 10° 02:33:57 10° 100° (E) 2,679 ? -47.1°
Sets 02:37:52 0° 124° (SE) 3,628 ? -46.2°
